This is the latest recevied weather packets stored in our database for station/object N2PUI. If no packets are shown the sender has not sent any weather packets the latest 10 day(s).
| Time | Temp. | Humidity | Pressure | Rain* | Wind** | Luminosity | Snow |
|---|---|---|---|---|---|---|---|
| 1777811211 | 5° C | 64% | 1014.2 hPa | 0 mm | - | 300 W/m² | - |
| 1777810302 | 5° C | 69% | 1014.1 hPa | 0 mm | - | 244 W/m² | - |
| 1777809696 | 4.44° C | 69% | 1014.2 hPa | 0 mm | - | 137 W/m² | - |
| 1777809393 | 4.44° C | 70% | 1014.2 hPa | 0 mm | - | 137 W/m² | - |
| 1777808788 | 3.89° C | 72% | 1014.2 hPa | 0 mm | - | 111 W/m² | - |
| 1777808485 | 4.44° C | 72% | 1014.2 hPa | 0 mm | - | 87 W/m² | - |
| 1777807881 | 3.89° C | 73% | 1014 hPa | 0 mm | - | 108 W/m² | - |
| 1777806971 | 3.89° C | 75% | 1014.1 hPa | 0 mm | - | 66 W/m² | - |
| 1777806668 | 3.33° C | 75% | 1013.9 hPa | 0 mm | - | 51 W/m² | - |
| 1777806364 | 3.33° C | 75% | 1013.7 hPa | 0 mm | - | 47 W/m² | - |
| 1777806061 | 3.33° C | 75% | 1013.9 hPa | 0 mm | - | 49 W/m² | - |
| 1777805455 | 3.33° C | 75% | 1013.6 hPa | 0 mm | - | 45 W/m² | - |
| 1777805153 | 3.33° C | 75% | 1013.7 hPa | 0 mm | - | 33 W/m² | - |
| 1777804548 | 3.33° C | 75% | 1013.7 hPa | 0 mm | - | 19 W/m² | - |
| 1777804245 | 3.33° C | 75% | 1013.4 hPa | 0 mm | - | 11 W/m² | - |
| 1777803335 | 3.33° C | 75% | 1013.3 hPa | 0 mm | - | 5 W/m² | - |
| 1777803032 | 3.33° C | 75% | 1013.1 hPa | 0 mm | - | 3 W/m² | - |
| 1777802729 | 3.33° C | 75% | 1013.3 hPa | 0 mm | - | 2 W/m² | - |
| 1777802428 | 3.33° C | 75% | 1013.1 hPa | 0 mm | - | 1 W/m² | - |
| 1777802125 | 3.33° C | 75% | 1013.3 hPa | 0 mm | - | 0 W/m² | - |
| 1777801823 | 3.33° C | 75% | 1013.3 hPa | 0 mm | - | 0 W/m² | - |
| 1777801216 | 3.33° C | 75% | 1013 hPa | 0 mm | - | 0 W/m² | - |
| 1777800913 | 3.33° C | 74% | 1013.1 hPa | 0 mm | - | 0 W/m² | - |
| 1777800610 | 3.33° C | 74% | 1013.1 hPa | 0 mm | - | 0 W/m² | - |
| 1777800306 | 3.33° C | 74% | 1013.3 hPa | 0 mm | - | 0 W/m² | - |
* Rain latest hour (hover to see other rain measurements)
** Current wind speed in m/s (hover to see current wind gust speed)